Probability
0 0 0 0 0 0 0 0 0 0 0 0 0 1 0 0 0 0 0 0 0 0 0 0 0 0 0 0 0 0 0 0 0 0 0 0 0 0 0 0 0 0 0
0 0 0 0 0 0 0 0 0 0 0 0 0 1 0 0 0 0 0 0 0 0 0 0 0 0 0 0 0 0 0 0 0 0 0 0 0 0 0 0 0 0 0
0 0 0 0 0 0 0 0 0 0 0 0 0 0 0 0 0 0 0 0 0 0 0 0 0 0 0 0 0 0 0 0 0 0 0 0 0 0 0 0 0 0 0
0 0 0 0 0 0 0 0 0 0 0 0 0 0 0 0 0 0 0 0 0 0 0 0 0 0 0 0 0 0 0 0 0 0 0 0 0 0 0 0 0 0 0
0 0 0 0 0 0 0 0 0 0 0 0 0 0 0 0 0 0 0 0 0 0 0 0 0 0 0 0 0 0 0 0 0 0 0 0 0 0 0 0 0 0 0
0 0 0 0 0 0 0 0 0 0 0 0 0 0 0 0 0 0 0 0 0 0 0 0 0 0 0 0 0 0 0 0 0 0 0 0 0 0 0 0 0 0 0
0 0 0 0 0 0 0 0 0 0 0 0 0 0 0 0 0 0 0 0 0 0 0 0 0 0 0 0 0 0 0 0 0 0 0 0 0 0 0 0 0 0 0
0 0 0 0 0 0 0 0 0 0 0 0 0 0 0 0 0 0 0 0 0 0 0 0 0 0 0 0 0 0 0 0 0 0 0 0 0 0 0 0 0 0 0
0 0 0 0 0 0 0 0 0 0 0 0 0 0 0 0 0 0 0 0 0 0 0 0 0 0 0 0 0 0 0 0 0 0 0 0 0 0 0 0 0 0 0
0 0 0 0 0 0 0 0 0 0 0 0 0 0 0 0 0 0 0 0 0 0 0 0 0 0 0 0 0 0 0 0 0 0 0 0 0 0 0 0 0 0 0
0 0 0 0 0 0 0 0 0 0 0 0 0 0 0 0 0 0 0 0 0 0 0 0 0 0 0 0 0 0 0 0 0 0 0 0 0 0 0 0 0 0 0
0 0 0 0 0 0 0 0 0 0 0 0 0 0 0 0 0 0 0 0 0 0 0 0 0 0 0 0 0 0 0 0 0 0 0 0 0 0 0 0 0 0 0
0 0 0 0 0 0 0 0 0 0 0 0 0 0 0 0 0 0 0 0 0 0 0 0 0 0 0 0 0 0 0 0 0 0 0 0 0 0 0 0 0 0 0
0 0 0 0 0 0 0 0 0 0 0 0 0 0 0 0 0 0 0 0 0 0 0 0 0 0 0 0 0 0 0 0 0 0 0 0 0 0 0 0 0 0 0
0 0 0 0 0 0 0 0 0 0 0 0 0 0 0 0 0 0 0 0 0 0 0 0 0 0 0 0 0 0 0 0 0 0 0 0 0 0 0 0 0 0 0
0 0 0 0 0 0 0 0 0 0 0 0 0 0 0 0 0 0 0 0 0 0 0 0 0 0 0 0 0 0 0 0 0 0 0 0 0 0 0 0 0 0 0
0 0 0 0 0 0 0 0 0 0 0 0 0 0 0 0 0 0 0 0 0 0 0 0 0 0 0 0 0 0 0 0 0 0 0 0 0 0 0 0 0 0 0
0 0 0 0 0 0 0 0 0 0 0 0 0 0 0 0 0 0 0 0 0 0 0 0 0 0 0 0 0 0 0 0 0 0 0 0 0 0 0 0 0 0 0
0 0 0 0 0 0 0 0 0 0 0 0 0 0 0 0 0 0 0 0 0 0 0 0 0 0 0 0 0 0 0 0 0 0 0 0 0 0 0 0 0 0 0
0 0 0 0 0 0 0 0 0 0 0 0 0 0 0 0 0 0 0 0 0 0 0 0 0 0 0 0 0 0 0 0 0 0 0 0 0 0 0 0 0 0 0
0 0 0 0 0 0 0 0 0 0 0 0 0 0 0 0 0 0 0 0 0 0 0 0 0 0 0 0 0 0 0 0 0 0 0 0 0 0 0 0 0 0 0
0 0 0 0 0 0 0 0 0 0 0 0 0 0 0 0 0 0 0 0 0 0 0 0 0 0 0 0 0 0 0 0 0 0 0 0 0 0 0 0 0 0 0
0 0 0 0 0 0 0 0 0 0 0 0 0 0 0 0 0 0 0 0 0 0 0 0 0 0 0 0 0 0 0 0 0 0 0 0 0 0 0 0 0 0 0
0 0 0 0 0 0 0 0 0 0 0 0 0 0 0 0 0 0 0 0 0 0 0 0 0 0 0 0 0 0 0 0 0 0 0 0 0 0 0 0 0 0 0
0 0 0 0 0 0 0 0 0 0 0 0 0 0 0 0 0 0 0 0 0 0 0 0 0 0 0 0 0 0 0 0 0 0 0 0 0 0 0 0 0 0 0
0 0 0 0 0 0 0 0 0 0 0 0 0 0 0 0 0 0 0 0 0 0 0 0 0 0 0 0 0 0 0 0 0 0 0 0 0 0 0 0 0 0 0
Wind_Speed
3 3 3 3 3 3 3 3 3 4 4 4 4 4 5 5 5 5 5 6 6 6 5 5 6 6 5 5 5 5 5 6 9 8 7 7 8 9 7 7 7 7 7
3 3 3 3 3 3 4 4 4 4 5 5 5 4 5 5 5 5 6 6 6 6 6 6 6 5 6 6 5 6 6 6 8 10 8 7 9 9 9 8 7 6 7
3 3 3 3 4 4 4 5 5 5 5 5 4 4 5 5 6 6 6 6 6 6 7 7 6 6 6 6 6 6 6 6 7 8 8 7 7 7 8 8 8 7 7
3 3 3 4 4 5 5 5 5 5 5 5 5 5 5 6 6 6 6 6 6 7 6 7 7 6 7 7 6 7 7 7 7 7 7 7 7 7 7 7 7 6 6
3 3 4 4 4 4 5 5 5 5 5 5 5 5 6 5 5 6 7 7 7 7 7 6 6 6 7 7 6 7 7 6 6 7 7 7 6 6 7 6 7 7 8
3 3 4 4 4 5 5 5 5 5 5 5 6 6 6 5 7 9 8 7 7 7 7 7 6 6 7 8 9 9 9 7 7 7 7 8 8 8 8 7 7 8 8
3 4 4 4 5 5 5 5 5 6 6 6 6 6 6 7 9 10 9 7 6 6 6 6 6 6 7 7 8 9 8 9 9 8 8 9 9 9 9 9 8 8 9
3 4 4 4 5 5 5 5 6 5 5 5 6 6 6 7 10 10 9 6 5 6 6 6 6 7 7 8 7 7 7 8 8 7 7 8 8 9 8 8 8 8 8
3 4 4 4 5 5 5 5 6 5 5 5 5 6 6 7 9 10 9 5 5 6 6 6 6 7 9 10 8 8 8 7 8 9 10 10 11 11 9 6 6 6 7
4 4 4 4 4 5 5 5 5 5 5 5 5 6 6 7 9 10 10 5 5 5 5 5 6 7 9 10 8 7 8 8 8 8 8 9 8 8 8 6 6 6 6
3 4 4 4 4 5 5 5 5 5 5 5 6 5 6 6 8 9 9 5 5 5 5 5 5 8 10 11 10 7 8 9 7 7 7 6 6 5 6 5 5 5 6
3 3 4 4 4 3 4 5 5 5 5 5 5 5 5 5 6 7 9 8 8 6 5 5 5 9 10 11 8 8 10 9 5 5 5 5 6 6 6 7 7 6 6
3 3 3 4 4 4 4 4 4 4 3 4 4 5 5 5 5 8 8 9 9 6 4 6 8 9 9 7 8 10 8 5 5 5 5 5 6 6 7 6 6 6 6
2 3 3 3 4 3 3 3 3 3 3 4 4 5 5 5 5 5 5 5 6 5 4 5 7 7 6 5 5 5 4 4 5 5 5 5 5 5 5 6 6 6 6
3 3 3 3 3 3 3 3 4 3 4 4 4 4 5 5 6 9 8 6 5 5 5 3 3 4 4 4 4 4 4 4 4 4 5 5 5 5 5 6 6 6 6
3 3 2 3 3 3 3 3 5 5 6 7 6 6 5 6 8 8 9 9 9 8 4 3 3 4 4 4 5 5 5 5 5 5 5 5 5 5 6 6 5 5 6
4 3 3 3 3 3 3 3 4 4 5 6 7 7 6 7 8 8 8 8 8 7 3 3 3 4 4 4 4 5 5 5 5 5 5 5 5 5 5 6 6 6 6
4 4 3 3 3 3 3 3 3 3 4 4 5 7 8 8 8 8 8 6 4 4 3 3 3 4 4 4 4 5 5 5 4 5 5 5 5 5 5 6 6 6 7
4 3 3 2 2 2 2 2 3 3 3 4 4 5 7 7 7 7 6 3 3 3 3 4 4 4 4 4 4 4 5 5 5 5 5 5 5 5 5 6 6 7 7
3 3 2 2 2 2 2 2 2 3 3 3 3 4 4 4 3 4 4 3 3 4 4 4 4 4 4 4 4 4 4 5 5 5 5 5 5 5 6 7 6 6 6
3 3 3 2 2 2 2 3 3 3 3 3 3 4 5 4 4 4 4 4 4 4 4 4 5 5 5 4 4 5 5 5 5 5 5 5 5 5 5 6 6 6 6
3 3 3 3 2 3 3 3 3 3 3 4 4 4 6 4 3 4 4 4 4 4 4 4 5 5 5 4 5 5 5 5 5 5 5 5 5 5 6 5 6 6 5
3 3 3 3 3 3 3 3 3 3 3 4 4 4 3 3 4 4 5 5 5 5 4 4 5 5 5 5 5 5 6 6 5 5 6 6 5 5 5 6 7 7 6
4 4 4 3 3 3 3 3 3 3 4 4 4 4 4 4 4 5 5 5 5 5 5 4 5 7 9 7 5 5 5 6 6 6 7 7 6 6 5 6 6 7 6
4 4 4 4 4 4 4 4 4 4 4 4 4 4 4 4 5 5 5 5 6 6 7 6 5 6 8 10 8 7 8 9 8 6 6 6 6 6 6 6 6 6 6
4 4 4 4 4 4 4 4 4 4 4 4 4 4 4 5 5 5 5 5 5 6 7 6 7 9 10 9 9 10 9 9 9 9 6 5 5 5 5 5 6 6 6
Wind_Direction
4 2 359 358 353 346 343 338 340 341 340 337 336 335 333 332 333 331 325 322 319 309 307 305 304 304 302 303 300 296 295 292 286 294 300 301 298 295 293 290 290 288 284
352 353 352 354 350 347 349 345 344 341 338 337 335 333 329 326 325 323 316 316 312 310 310 309 309 311 307 304 302 299 296 295 290 294 301 303 300 302 302 296 294 292 290
346 349 349 354 353 346 343 341 341 335 331 331 327 326 323 321 320 317 311 308 308 308 309 307 307 312 311 312 309 302 297 296 292 290 297 303 303 305 307 301 298 296 296
340 344 350 351 344 339 336 337 335 329 327 325 324 322 318 317 317 315 310 309 308 308 307 304 308 309 310 311 308 307 306 301 298 294 295 302 304 309 307 306 303 305 304
336 343 344 341 338 335 334 334 332 330 326 325 323 321 318 315 320 319 313 311 307 305 306 306 309 312 314 312 307 307 309 307 304 299 297 302 305 312 308 310 304 310 308
331 336 336 334 335 333 334 334 332 330 329 328 325 321 320 319 324 319 312 306 304 303 306 309 310 309 314 315 313 313 311 306 303 301 300 299 304 307 310 308 307 307 305
328 330 330 330 332 332 332 334 332 329 329 328 325 322 319 319 320 318 316 307 304 305 306 308 311 318 318 318 321 320 319 316 307 300 299 301 305 310 308 306 306 304 301
319 323 326 328 328 327 328 329 328 325 323 322 322 320 317 318 322 322 322 317 312 310 310 311 309 313 321 322 319 320 320 321 321 318 309 307 310 312 307 301 301 301 298
313 319 321 320 318 319 322 323 322 320 316 317 316 316 315 318 327 327 326 318 313 313 313 314 312 311 320 325 323 318 315 318 327 324 319 315 316 319 316 310 307 302 300
304 311 312 310 309 311 313 314 313 312 310 313 313 316 316 318 325 327 326 316 313 313 314 314 319 320 323 326 321 315 312 316 322 322 321 323 322 325 327 317 304 296 297
308 309 310 309 307 306 308 309 310 311 312 312 311 314 316 317 321 327 328 322 313 311 310 312 320 326 325 325 322 315 315 319 318 317 316 319 325 330 332 329 318 303 297
304 303 306 307 307 308 309 309 311 310 309 309 309 311 315 318 322 325 328 325 319 310 307 310 317 323 323 324 325 328 331 328 317 315 317 323 328 330 330 327 324 318 308
297 299 303 310 307 304 301 303 307 306 304 306 308 311 316 321 322 326 325 324 323 317 315 316 319 322 324 329 341 339 336 328 322 320 321 324 325 322 321 320 322 321 313
281 293 300 305 307 308 302 299 301 303 302 303 306 309 313 315 319 324 323 323 323 322 318 321 327 334 338 338 335 335 332 329 324 319 319 320 320 321 324 325 323 325 319
274 283 292 295 299 301 300 301 299 295 300 299 300 302 307 313 323 325 324 326 327 323 324 328 336 339 339 338 335 334 330 328 327 325 320 320 321 323 325 328 324 321 317
256 269 278 285 290 291 296 304 311 312 314 313 311 306 310 314 321 329 335 339 344 344 340 334 332 332 329 329 329 328 329 329 327 322 319 319 320 321 323 324 324 321 317
243 253 262 268 273 280 285 291 302 312 316 326 332 328 329 330 332 336 340 343 350 356 355 333 324 322 319 319 319 319 319 321 321 319 318 318 317 317 318 319 321 321 317
241 245 250 256 265 271 276 282 287 297 306 311 327 335 339 342 342 345 347 350 349 356 337 319 313 312 312 311 313 314 313 315 318 318 318 317 315 313 314 315 315 315 313
232 235 242 254 260 264 270 275 280 286 294 305 316 324 340 337 339 349 356 345 324 322 319 312 307 302 302 302 304 305 305 306 311 312 312 313 312 309 308 308 308 310 308
231 238 241 243 249 255 259 264 272 278 285 292 300 312 328 329 326 331 333 319 307 304 305 303 302 300 299 297 297 298 300 302 306 305 307 309 309 307 303 302 304 308 307
226 226 224 232 236 242 247 253 260 266 271 277 285 299 308 307 306 307 306 304 300 298 298 297 295 294 292 294 294 293 294 296 298 298 300 303 304 303 301 299 300 301 303
215 217 217 225 231 236 243 248 252 257 264 271 283 292 301 300 295 295 295 296 295 290 289 288 287 288 287 286 287 289 288 288 290 291 294 296 296 296 297 300 302 304 304
210 213 217 223 229 235 241 244 247 254 262 269 277 282 287 287 286 286 288 292 293 292 291 286 285 287 286 282 281 279 278 280 283 285 287 291 293 294 297 299 300 300 302
208 211 216 221 225 230 237 244 248 252 258 264 269 272 275 278 281 284 287 289 291 290 289 285 281 283 288 290 286 280 275 277 279 276 275 278 285 290 292 293 296 297 297
206 210 216 222 226 233 239 245 248 252 255 258 263 267 272 275 278 282 285 286 288 287 289 288 283 284 286 287 286 282 282 283 281 275 272 271 276 281 284 287 292 296 295
210 214 219 224 229 232 236 243 247 250 253 256 259 263 267 271 275 279 282 283 286 288 289 287 285 287 291 290 285 282 281 281 277 272 268 266 271 275 281 282 288 290 293